Location: Pace/Milton
(30.6162°N, 87.1503°W)
Time: 11:55:02
(UTC-05:00)

Hubble Space Telescope - Visible Passes

Search period start: 26 May 2022 00:00
Search period end: 05 June 2022 00:00
Orbit: 533 x 536 km, 28.5° (Epoch: 25 May)

Date Brightness Start Highest point End Pass type
(mag) Time Alt. Az. Time Alt. Az. Time Alt. Az.
02 Jun 2.2 05:08:23 10° SW 05:11:50 26° SSE 05:15:18 10° ESE visible
03 Jun 1.9 04:56:49 13° SW 04:59:56 31° SSE 05:03:35 10° E visible
04 Jun 1.6 04:45:27 18° SW 04:48:01 36° SSE 04:51:50 10° E visible
